Sarasota, FL

9:55 PM EDT on April 21, 2018 (GMT -0400)
Sarasota-bradenton

Weather History for KSRQ - February, 2012

Change the Weather History Date:

Wednesday, February 8, 2012

  Actual Average Record
Temperature  
Mean Temperature 69 °F 63 °F  
Max Temperature 77 °F 73 °F 85 °F (1957)
Min Temperature 60 °F 53 °F 34 °F (1978)
Degree Days  
Heating Degree Days 0 4  
Month to date heating degree days 0 32  
Since 1 July heating degree days 160 352  
Cooling Degree Days 4 2  
Month to date cooling degree days 50 12  
Year to date cooling degree days 84 64  
Growing Degree Days 18 (Base 50)    
Moisture  
Dew Point 57 °F    
Average Humidity 71    
Maximum Humidity 90    
Minimum Humidity 43    
Precipitation  
Precipitation 0.00 in 0.05 in 1.57 in (1953)
Month to date precipitation 0.32 0.34  
Year to date precipitation 1.31 2.83  
Sea Level Pressure  
Sea Level Pressure 30.06 in    
Wind  
Wind Speed 8 mph (North)    
Max Wind Speed 15 mph    
Max Gust Speed 20 mph    
Visibility 10 miles    
Events      
T = Trace of Precipitation, MM = Missing Value Source: NWS Daily Summary

Daily Weather History Graph

Daily Weather History Graph

Search for Another Location

Airport or City:

Astronomy

Feb. 08, 2012 Rise Set
Actual Time 7:12 AM EST 6:16 PM EST
Civil Twilight 6:48 AM EST 6:40 PM EST
Nautical Twilight 6:20 AM EST 7:08 PM EST
Astronomical Twilight 5:53 AM EST 7:35 PM EST
Moon 7:22 PM EST (2/8) 7:24 AM EST (2/8)
Length of Visible Light 11h 52m
Length of Day
11h 03m
Full, 99% of the Moon is Illuminated
Feb 8
Full
Feb 14
Last Quarter
Feb 21
New
Feb 29
First Quarter
Mar 8
Full

Hourly Weather History & Observations

Time (EST) Temp. Dew Point Humidity Pressure Visibility Wind Dir Wind Speed Gust Speed Precip Events Conditions
12:53 AM 66.9 °F 62.1 °F 84% 30.06 in 10.0 mi NNE 6.9 mph - N/A   Overcast
1:53 AM 66.9 °F 62.1 °F 84% 30.06 in 10.0 mi NNE 8.1 mph - N/A   Overcast
2:13 AM 66.2 °F 62.6 °F 88% 30.05 in 10.0 mi NNE 5.8 mph - N/A   Overcast
2:23 AM 66.2 °F 62.6 °F 88% 30.05 in 10.0 mi NNE 8.1 mph - N/A   Overcast
2:53 AM 66.0 °F 62.1 °F 87% 30.04 in 10.0 mi North 9.2 mph - N/A   Overcast
3:31 AM 64.4 °F 60.8 °F 88% 30.04 in 10.0 mi NNE 6.9 mph - N/A   Partly Cloudy
3:53 AM 64.0 °F 61.0 °F 90% 30.04 in 10.0 mi NNE 5.8 mph - N/A   Clear
4:53 AM 63.0 °F 59.0 °F 87% 30.04 in 10.0 mi NNE 6.9 mph - N/A   Clear
5:53 AM 61.0 °F 55.9 °F 83% 30.05 in 10.0 mi NNE 6.9 mph - N/A   Clear
6:53 AM 60.1 °F 55.9 °F 86% 30.06 in 10.0 mi North 5.8 mph - N/A   Clear
7:53 AM 61.0 °F 55.9 °F 83% 30.09 in 10.0 mi NNE 8.1 mph - N/A   Clear
8:53 AM 64.0 °F 54.0 °F 70% 30.10 in 10.0 mi NNE 9.2 mph - N/A   Clear
9:53 AM 66.0 °F 54.0 °F 65% 30.12 in 10.0 mi NNE 8.1 mph - N/A   Clear
10:53 AM 72.0 °F 54.0 °F 53% 30.12 in 10.0 mi North 8.1 mph - N/A   Clear
11:53 AM 75.0 °F 55.0 °F 50% 30.11 in 10.0 mi NNE 10.4 mph - N/A   Clear
12:53 PM 73.9 °F 53.1 °F 48% 30.09 in 10.0 mi NNW 11.5 mph 16.1 mph N/A   Clear
1:53 PM 77.0 °F 53.1 °F 43% 30.05 in 10.0 mi North 9.2 mph - N/A   Clear
2:53 PM 75.0 °F 54.0 °F 48% 30.03 in 10.0 mi NNW 10.4 mph - N/A   Clear
3:53 PM 75.0 °F 54.0 °F 48% 30.02 in 10.0 mi NNW 11.5 mph - N/A   Clear
4:53 PM 73.9 °F 52.0 °F 46% 30.03 in 10.0 mi NW 8.1 mph - N/A   Clear
5:53 PM 69.1 °F 53.1 °F 57% 30.04 in 10.0 mi NW 5.8 mph - N/A   Clear
6:53 PM 66.0 °F 55.0 °F 68% 30.04 in 10.0 mi NNW 5.8 mph - N/A   Clear
7:53 PM 66.0 °F 55.9 °F 70% 30.05 in 10.0 mi NNW 6.9 mph - N/A   Clear
8:53 PM 64.9 °F 55.9 °F 73% 30.08 in 10.0 mi NNW 9.2 mph - N/A   Clear
9:53 PM 64.9 °F 55.0 °F 70% 30.09 in 10.0 mi North 6.9 mph - N/A   Clear
10:53 PM 64.0 °F 55.9 °F 75% 30.10 in 10.0 mi North 8.1 mph - N/A   Clear
11:53 PM 63.0 °F 55.9 °F 78% 30.08 in 10.0 mi NNE 9.2 mph - N/A   Clear